www.pogodaiklimat.ru

Погода и климат >> Архив погоды >> Норвегия >> Маяк Skrova


ПОГОДА на Маяке Skrova

  • Прогноз погоды на Маяке Skrova
  • Монитор погоды на Маяке Skrova

АРХИВ ПОГОДЫ на Маяке Skrova

Время (UTC), дата Ветер
(напр.,м/с)
 
Видим.   Явления Облачность Т
(С)
Тd
(С)
f
(%)
Тe
(С)
Тes
(С)
Комфортность P
(гПа)
Po
(гПа)
Тmin
(С)
Tmax
(С)
R
(мм)
R24
(мм)
S
(см)
01 19.04 ЮВ 2
{5}
н/о н/о +4.4 +3.8 96 +1 +1 1031.0 1029.6
02 19.04 В 4
{5}
н/о н/о +4.1 +3.5 96 -1 -1 1030.8 1029.4
03 19.04 В 4
{6}
н/о н/о +4.3 +3.9 97 -0 -0 1030.4 1029.0
04 19.04 ЮЗ 2
{7}
н/о н/о +4.7 +4.4 98 +2 +2 1030.2 1028.8
05 19.04 Ю 6
{8}
н/о н/о +5.0 +4.7 98 -0 -0 1030.3 1028.9
06 19.04 Ю 6
{8}
н/о н/о +5.2 +5.1 99 -0 -0 1030.5 1029.1 +3.3 +5.5
07 19.04 Ю 6
{8}
н/о н/о +5.2 +5.1 99 -0 -0 1030.5 1029.1
08 19.04 Ю 7
{8}
н/о н/о +5.3 +5.2 99 -0 -0 1030.5 1029.1
09 19.04 Ю 7
{11}
н/о н/о +5.4 +5.3 99 -0 -0 1030.4 1029.0
10 19.04 Ю 9
{12}
н/о н/о +5.5 +5.4 99 -1 -1 1030.4 1029.0
11 19.04 Ю 9
{12}
н/о н/о +5.6 +5.3 98 -1 -1 1030.3 1028.9
12 19.04 Ю 9
{13}
н/о н/о +5.6 +5.3 98 -1 -1 1030.1 1028.7
13 19.04 Ю 9
{11}
н/о н/о +5.9 +5.5 97 -0 -0 1030.1 1028.7
14 19.04 Ю 8
{11}
н/о н/о +5.6 +4.9 95 -0 -0 1030.1 1028.7
15 19.04 Ю 7
{10}
н/о н/о +6.0 +5.1 94 +1 +1 1030.2 1028.8
16 19.04 Ю 8
{10}
н/о н/о +5.9 +5.2 95 0 0 1030.1 1028.7
17 19.04 ЮЗ 6
{12}
н/о н/о +5.9 +5.2 95 +1 +1 1030.2 1028.8
18 19.04 ЮЗ 7
{12}
н/о н/о +5.6 +5.0 96 0 0 1029.9 1028.5 +4.5 +6.2
19 19.04 Ю 7
{9}
н/о н/о +5.7 +5.1 96 0 0 1030.0 1028.6
20 19.04 Ю 7
{10}
н/о н/о +5.6 +5.0 96 0 0 1029.9 1028.5
21 19.04 ЮЗ 7
{9}
н/о н/о +5.8 +5.2 96 0 0 1030.0 1028.6
22 19.04 Ю 6
{9}
н/о н/о +5.6 +5.2 97 0 0 1030.0 1028.6
23 19.04 ЮЗ 4
{7}
н/о н/о +5.7 +5.3 97 +2 +2 1029.8 1028.4
00 20.04 Ю 7
{10}
н/о н/о +5.9 +5.0 94 +1 +1 1029.5 1028.1
01 20.04 Ю 5
{9}
н/о н/о +5.7 +4.5 92 +1 +1 1029.1 1027.7
02 20.04 ЮЗ 5
{11}
н/о н/о +5.9 +4.2 89 +1 +1 1029.0 1027.6
03 20.04 ЮВ 1
{7}
н/о н/о +5.8 +4.3 90 +5 +5 1028.6 1027.2
04 20.04 ЮЗ 1
{8}
н/о н/о +5.7 +4.2 90 +4 +4 1028.4 1027.0
05 20.04 З 1
{7}
н/о н/о +6.7 +4.0 83 +6 +6 1028.2 1026.8
06 20.04 ЮЗ 5
{11}
н/о н/о +6.7 +3.5 80 +3 +3 1027.8 1026.4 +5.0 +7.0
07 20.04 З 3
{7}
н/о н/о +6.5 +3.5 81 +3 +3 1027.4 1026.0
08 20.04 ЮЗ 3
{4}
н/о н/о +7.1 +3.0 75 +4 +4 1026.9 1025.5
09 20.04 Ю 8
{10}
н/о н/о +7.0 +2.7 74 +2 +2 1026.0 1024.6
10 20.04 Ю 8
{10}
н/о н/о +7.2 +2.7 73 +2 +2 1025.0 1023.6
11 20.04 СЗ 2
{9}
н/о н/о +8.2 +3.1 70 +6 +6 1024.1 1022.7
12 20.04 Ю 7
{10}
н/о н/о +8.8 +2.2 63 +5 +5 1022.6 1021.2
13 20.04 Ю 6
{8}
н/о н/о +8.4 +2.2 65 +5 +5 1021.6 1020.2
14 20.04 Ю 7
{9}
н/о н/о +8.3 +2.6 67 +4 +4 1020.5 1019.1
15 20.04 Ю 16
{24}
н/о н/о +10.8 +1.1 51 +6 +6 1019.7 1018.4
16 20.04 ЮЗ 7
{18}
н/о н/о +8.6 +2.4 65 +5 +5 1019.0 1017.6
17 20.04 ЮЗ 3
{9}
н/о н/о +7.1 +3.4 77 +4 +4 1018.5 1017.1
18 20.04 Ю 12
{24}
н/о н/о +5.7 +5.1 96 -1 -1 1016.9 1015.5 +5.7 +11.1
19 20.04 Ю 15
{19}
н/о н/о +5.9 +5.6 98 -2 -2 1016.0 1014.6
20 20.04 Ю 13
{17}
н/о н/о +5.9 +5.8 99 -1 -1 1015.8 1014.4
21 20.04 Ю 13
{16}
н/о н/о +5.7 +5.6 99 -1 -1 1015.6 1014.2
22 20.04 Ю 13
{16}
н/о н/о +5.7 +5.6 99 -1 -1 1015.2 1013.8
23 20.04 Ю 12
{14}
н/о н/о +5.7 +5.6 99 -1 -1 1014.8 1013.4
00 21.04 Ю 11
{19}
н/о н/о +5.7 +5.6 99 -1 -1 1013.8 1012.4
01 21.04 Ю 12
{14}
н/о н/о +5.9 +5.8 99 -1 -1 1013.1 1011.7
02 21.04 Ю 12
{15}
н/о н/о +5.9 +5.8 99 -1 -1 1012.5 1011.1
03 21.04 ЮЗ 12
{14}
н/о н/о +5.5 +5.2 98 -2 -2 1012.1 1010.7
04 21.04 Ю 9
{15}
н/о н/о +5.3 +4.9 97 -1 -1 1011.8 1010.4
05 21.04 Ю 11
{14}
н/о н/о +5.5 +4.8 95 -1 -1 1011.8 1010.4
06 21.04 Ю 12
{15}
н/о н/о +5.8 +4.8 93 -1 -1 1011.6 1010.2 +5.1 +6.2
07 21.04 ЮЗ 10
{15}
н/о н/о +5.5 +4.3 92 -1 -1 1011.6 1010.2
08 21.04 ЮЗ 10
{19}
н/о н/о +5.7 +3.4 85 -1 -1 1011.6 1010.2
09 21.04 ЮЗ 12
{17}
н/о н/о +5.6 +2.6 81 -1 -1 1011.3 1009.9
10 21.04 ЮЗ 12
{15}
н/о н/о +5.8 +3.2 83 -1 -1 1011.5 1010.1
11 21.04 ЮЗ 11
{17}
н/о н/о +5.4 +2.9 84 -1 -1 1011.8 1010.4
12 21.04 ЮЗ 10
{19}
н/о н/о +5.7 +2.9 82 -0 -0 1011.9 1010.5
13 21.04 ЮЗ 12
{15}
н/о н/о +5.6 +3.5 86 -1 -1 1011.7 1010.3
14 21.04 ЮЗ 13
{16}
н/о н/о +5.7 +3.1 83 -1 -1 1011.9 1010.5
15 21.04 ЮЗ 10
{15}
н/о н/о +5.5 +3.7 88 -1 -1 1012.6 1011.2
16 21.04 ЮЗ 10
{13}
н/о н/о +5.4 +3.9 90 -1 -1 1012.7 1011.3
17 21.04 ЮЗ 11
{13}
н/о н/о +5.5 +4.2 91 -1 -1 1013.1 1011.7
18 21.04 Ю 9
{16}
н/о н/о +5.4 +4.2 92 -1 -1 1013.1 1011.7 +4.7 +6.5
19 21.04 Ю 9
{13}
н/о н/о +5.3 +4.3 93 -1 -1 1013.3 1011.9
20 21.04 Ю 9
{12}
н/о н/о +5.2 +4.3 94 -1 -1 1013.6 1012.2
21 21.04 Ю 8
{11}
н/о н/о +5.4 +4.5 94 -1 -1 1013.9 1012.5
22 21.04 ЮЗ 9
{12}
н/о н/о +5.4 +4.7 95 -1 -1 1014.2 1012.8
23 21.04 ЮЗ 8
{12}
н/о н/о +5.4 +4.7 95 -1 -1 1014.4 1013.0
00 22.04 Ю 8
{13}
н/о н/о +5.3 +4.6 95 -1 -1 1014.5 1013.1
01 22.04 Ю 8
{10}
н/о н/о +5.3 +4.4 94 -1 -1 1014.7 1013.3
02 22.04 Ю 8
{10}
н/о н/о +5.3 +4.6 95 -1 -1 1014.7 1013.3
03 22.04 Ю 8
{10}
н/о н/о +5.6 +4.1 90 -0 -0 1014.9 1013.5
04 22.04 Ю 7
{9}
н/о н/о +5.1 +4.5 96 -1 -1 1014.9 1013.5
05 22.04 Ю 6
{8}
н/о н/о +5.1 +4.7 97 -0 -0 1014.9 1013.5
06 22.04 Ю 6
{10}
н/о н/о +5.1 +4.4 95 -0 -0 1015.2 1013.8 +4.7 +5.9
07 22.04 Ю 4
{6}
н/о н/о +7.5 +6.1 91 +4 +4 1015.1 1013.7
08 22.04 ЮВ 2
{4}
н/о н/о +6.8 +4.1 83 +5 +5 1014.9 1013.5
09 22.04 В 5
{6}
н/о н/о +6.5 +1.6 71 +3 +3 1014.5 1013.1
10 22.04 В 6
{7}
н/о н/о +6.5 +2.0 73 +2 +2 1013.8 1012.4
11 22.04 В 6
{8}
н/о н/о +6.1 +2.4 77 +1 +1 1013.0 1011.6
12 22.04 В 5
{8}
н/о н/о +6.0 +3.2 82 +2 +2 1012.4 1011.0
13 22.04 В 6
{7}
н/о н/о +5.6 +4.4 92 +1 +1 1011.8 1010.4
14 22.04 ЮВ 5
{9}
н/о н/о +6.3 +5.7 96 +2 +2 1011.9 1010.5
15 22.04 Ю 11
{13}
н/о н/о +6.4 +5.7 95 0 0 1011.4 1010.0
16 22.04
{14}
н/о н/о +7.3 +4.4 82 1011.1 1009.8
17 22.04 Ю 14
{19}
н/о н/о +7.5 +4.3 80 +1 +1 1010.9 1009.6
18 22.04 Ю 13
{19}
н/о н/о +7.3 +4.1 80 +1 +1 1011.1 1009.8 +4.7 +7.8
19 22.04 Ю 10
{16}
н/о н/о +7.3 +4.1 80 +2 +2 1011.6 1010.2
20 22.04 Ю 11
{15}
н/о н/о +6.9 +3.5 79 +1 +1 1011.8 1010.4
21 22.04 ЮЗ 10
{14}
н/о н/о +6.8 +4.1 83 +1 +1 1012.4 1011.0
22 22.04 ЮЗ 10
{13}
н/о н/о +6.7 +4.2 84 +1 +1 1012.5 1011.1
23 22.04 ЮЗ 4
{12}
н/о н/о +6.2 +4.7 90 +2 +2 1013.0 1011.6
00 23.04 Ю 10
{16}
н/о н/о +6.7 +3.7 81 +1 +1 1013.1 1011.7
01 23.04 Ю 9
{13}
н/о н/о +7.0 +3.8 80 +2 +2 1013.7 1012.3
02 23.04 Ю 10
{12}
н/о н/о +6.6 +3.4 80 +1 +1 1013.9 1012.5
03 23.04 Ю 12
{15}
н/о н/о +6.9 +3.9 81 +1 +1 1013.9 1012.5
04 23.04 Ю 12
{15}
н/о н/о +7.1 +4.1 81 +1 +1 1014.3 1012.9
05 23.04 Ю 11
{16}
н/о н/о +7.0 +4.0 81 +1 +1 1014.6 1013.2
06 23.04 Ю 8
{16}
н/о н/о +6.9 +3.9 81 +2 +2 1015.3 1013.9 +5.8 +7.7
07 23.04 Ю 8
{11}
н/о н/о +7.1 +3.7 79 +2 +2 1015.8 1014.4
08 23.04 ЮЗ 5
{10}
н/о н/о +7.3 +3.9 79 +3 +3 1016.6 1015.2
09 23.04 ЮЗ 7
{9}
н/о н/о +6.9 +4.6 85 +2 +2 1016.8 1015.4
10 23.04 Ю 8
{10}
н/о н/о +6.9 +4.9 87 +2 +2 1017.4 1016.0
11 23.04 ЮЗ 4
{10}
н/о н/о +7.4 +4.9 84 +4 +4 1017.9 1016.5
12 23.04 ЮЗ 5
{11}
н/о н/о +7.9 +4.3 78 +4 +4 1018.5 1017.1
13 23.04 ЮЗ 5
{8}
н/о н/о +7.5 +4.3 80 +4 +4 1018.7 1017.3
14 23.04 ЮЗ 4
{6}
н/о н/о +7.3 +4.4 82 +4 +4 1019.0 1017.6
15 23.04 ЮЗ 3
{8}
н/о н/о +7.2 +4.3 82 +4 +4 1019.2 1017.8
16 23.04 Ю 3
{4}
н/о н/о +7.1 +4.4 83 +4 +4 1019.3 1017.9
17 23.04 Ю 4
{5}
н/о н/о +6.9 +4.6 85 +3 +3 1019.6 1018.2
18 23.04 Ю 2
{8}
н/о н/о +6.6 +4.8 88 +4 +4 1019.9 1018.5 +6.4 +9.2
19 23.04 Ю 4
{5}
н/о н/о +6.3 +4.9 91 +2 +2 1020.3 1018.9
20 23.04 Ю 3
{5}
н/о н/о +5.9 +4.9 93 +2 +2 1020.7 1019.3
21 23.04 ЮЗ 2
{4}
н/о н/о +5.9 +5.0 94 +3 +3 1021.0 1019.6
22 23.04 З 2
{3}
н/о н/о +5.5 +4.8 95 +3 +3 1021.2 1019.8
23 23.04 СЗ 1
{2}
н/о н/о +5.7 +5.0 95 +4 +4 1021.4 1020.0
00 24.04 С 2
{5}
н/о н/о +4.6 +4.2 97 +2 +2 1021.5 1020.1
01 24.04 В 1
{4}
н/о н/о +4.6 +4.3 98 +3 +3 1021.7 1020.3
02 24.04 С 1
{3}
н/о н/о +4.1 +3.8 98 +2 +2 1022.0 1020.6
03 24.04 ЮВ 1
{2}
н/о н/о +3.7 +3.6 99 +2 +2 1022.4 1021.0
04 24.04 В 4
{5}
н/о н/о +5.0 +4.9 99 +1 +1 1022.3 1020.9
05 24.04 В 4
{7}
н/о н/о +5.6 +5.3 98 +1 +1 1022.4 1021.0
06 24.04 В 4
{7}
н/о н/о +7.3 +5.9 91 +4 +4 1022.4 1021.0 +3.5 +7.4
07 24.04 В 5
{7}
н/о н/о +8.0 +5.3 83 +4 +4 1022.5 1021.1
08 24.04 В 5
{7}
н/о н/о +9.7 +4.7 71 +7 +7 1022.8 1021.4
09 24.04 В 5
{8}
н/о н/о +9.7 +4.5 70 +7 +7 1022.9 1021.5
10 24.04 В 5
{8}
н/о н/о +10.7 +3.5 61 +8 +8 1022.8 1021.5
11 24.04 В 5
{8}
н/о н/о +12.8 +2.4 49 +11 +11 1022.7 1021.4
12 24.04 СВ 4
{8}
н/о н/о +14.1 +1.1 41 +13 +13 1022.7 1021.4
13 24.04 СВ 5
{8}
н/о н/о +14.6 +0.8 39 +13 +13 1022.6 1021.3
14 24.04 В 5
{8}
н/о н/о +14.4 +1.7 42 +13 +13 1022.6 1021.3
15 24.04 В 4
{7}
н/о н/о +14.6 +1.9 42 +14 +14 1022.5 1021.2
16 24.04 СВ 4
{7}
н/о н/о +14.9 +1.1 39 +14 +14 1022.4 1021.1
17 24.04 С 3
{7}
н/о н/о +14.5 +2.7 45 +14 +14 1022.3 1021.0
18 24.04 СВ 2
{8}
н/о н/о +12.6 +2.2 49 +12 +12 1022.3 1021.0 +7.3 +15.9
19 24.04 В 1
{4}
н/о н/о +10.9 +2.2 55 +11 +11 1022.6 1021.3
20 24.04 СВ 4
{7}
н/о н/о +12.2 +1.0 46 +11 +11 1022.7 1021.4
21 24.04 СВ 7
{9}
н/о н/о +13.2 +0.3 41 +11 +11 1022.6 1021.3
22 24.04 СВ 8
{11}
н/о н/о +12.9 +0.3 42 +10 +10 1022.5 1021.2
23 24.04 В 7
{12}
н/о н/о +12.0 +0.2 44 +9 +9 1022.4 1021.1
00 25.04 СВ 8
{12}
н/о н/о +12.1 +0.3 44 +9 +9 1022.2 1020.9
01 25.04 В 8
{13}
н/о н/о +11.2 +0.3 47 +8 +8 1022.1 1020.8
02 25.04 В 7
{12}
н/о н/о +11.1 -0.3 45 +8 +8 1022.0 1020.7
03 25.04 В 8
{12}
н/о н/о +10.8 -0.3 46 +8 +8 1021.9 1020.6
04 25.04 В 8
{12}
н/о н/о +9.9 0.0 50 +6 +6 1022.0 1020.6
05 25.04 В 8
{12}
н/о н/о +10.8 0.0 47 +8 +8 1021.9 1020.6
06 25.04 СВ 9
{13}
н/о н/о +11.6 -0.5 43 +8 +8 1021.8 1020.5 +9.5 +13.5
07 25.04 В 8
{13}
н/о н/о +12.0 -0.2 43 +9 +9 1021.7 1020.4
08 25.04 В 7
{12}
н/о н/о +12.3 +0.1 43 +10 +10 1021.7 1020.4
09 25.04 СВ 8
{11}
н/о н/о +12.9 0.0 41 +10 +10 1021.8 1020.5
10 25.04 СВ 6
{10}
н/о н/о +13.5 +0.2 40 +12 +12 1021.8 1020.5
11 25.04 СВ 7
{10}
н/о н/о +14.1 0.0 38 +12 +12 1021.8 1020.5
12 25.04 СВ 6
{13}
н/о н/о +14.7 +0.2 37 +13 +13 1021.8 1020.5
13 25.04 СВ 6
{8}
н/о н/о +15.1 -0.2 35 +14 +14 1021.5 1020.2
14 25.04 СВ 6
{9}
н/о н/о +15.2 -0.1 35 +14 +14 1021.5 1020.2
15 25.04 СВ 6
{8}
н/о н/о +15.2 -0.1 35 +14 +14 1021.5 1020.2
16 25.04 СВ 5
{9}
н/о н/о +15.3 -0.4 34 +14 +14 1021.2 1019.9
17 25.04 В 6
{9}
н/о н/о +15.0 -0.3 35 +14 +14 1020.9 1019.6
18 25.04 СВ 7
{10}
н/о н/о +15.0 -0.7 34 +13 +13 1020.7 1019.4 +11.2 +16.6
19 25.04 СВ 6
{9}
н/о н/о +14.5 -1.1 34 +13 +13 1020.9 1019.6
20 25.04 СВ 6
{9}
н/о н/о +13.9 -1.7 34 +12 +12 1021.0 1019.7
21 25.04 СВ 7
{10}
н/о н/о +13.9 -1.7 34 +12 +12 1021.1 1019.8
22 25.04 СВ 7
{10}
н/о н/о +13.4 -1.3 36 +11 +11 1021.0 1019.7
23 25.04 В 7
{11}
н/о н/о +13.2 -1.5 36 +11 +11 1020.8 1019.5
00 26.04 СВ 7
{11}
н/о н/о +12.9 -1.8 36 +11 +11 1020.7 1019.4
01 26.04 В 7
{9}
н/о н/о +11.8 -1.0 41 +9 +9 1020.5 1019.2

 

Местоположение метеостанции Маяк Skrova (Норвегия): широта 68.15 долгота 14.65 высота над уровнем моря 11 м.

В архиве по умолчанию представлена погода на Маяке Skrova за последнюю неделю. Архивные данные за месяц целиком и за предыдущие месяцы, начиная с января 2011 года, Вы можете получить, выбрав интересующий диапазон дат из раскрывающегося списка и нажав кнопку "Ввод!".


*Определитесь, кто Вы:
робот инопланетянин человек

Внимание! Время в таблицах - всемирное. Для получения местного времени необходимо прибавить поправку, которая равна 1 ч.

Смотрите также архив погоды в соседних городах и на ближайших метеорологических станциях:

Погода в Сволваер аэропорту (Норвегия) (11 км)
Погода в Лекнесе (Норвегия) (43 км)
Погода в Стокмаркнес аэропорту (Норвегия) (50 км)
Погода в Бё (Норвегия) (52 км)
Погода на Маяке Rotvaer (Норвегия) (59 км)
Погода в Драге (Норвегия) (60 км)
Погода в Сортланне (Норвегия) (69 км)
Погода в Хеллигвере (Норвегия) (89 км)
Погода в Аэропорту Харстад/Нарвик (Норвегия) (92 км)
Погода в Аэропорту Vaeroy Heliport (Норвегия) (98 км)

Пояснения к столбцам:

Ветер - указаны скорость ветра в м/с - средняя за 10 мин, порывы в срок и между сроками (в фигурных скобках) и направление, откуда дует ветер: С - северный, СВ - северо-восточный, В - восточный, ЮВ - юго-восточный, Ю - южный, ЮЗ - юго-западный, З - западный, СЗ - северо-западный.
Видимость - горизонтальная дальность видимости в метрах или километрах. При видимости от 1 до 10 км при отсутствии осадков обычно наблюдается дымка, при ухудшении видимости до 1 км и менее - туман. В сухую погоду видимость может ухудшаться дымом, пылью или мглою.
Явления - указаны атмосферные явления, наблюдавшиеся в срок или в последний час перед сроком; фигурными скобками обозначены явления, наблюдавшиеся между сроками (за 1-3 часа до срока); квадратными скобками обозначены град или гололедные отложения с указанием их диаметра в мм.
Облачность - указаны через наклонную черту общая и нижняя облачность в баллах и высота нижней границы облаков в метрах; квадратными скобками обозначены формы облаков: Ci - перистые, Cs - перисто-слоистые, Cc - перисто-кучевые, Ac - высококучевые, As - высокослоистые, Sc - слоисто-кучевые, Ns - слоисто-дождевые, Cu - кучевые, Cb - кучево-дождевые. Подробнее классификацию облаков см. в Атласе облаков (PDF).
T - Температура воздуха - температура, измеренная на высоте 2 м над землей.
Td - Температура точки росы - температура, при понижении до которой содержащийся в воздухе водяной пар достигнет насыщения.
f - Относительная влажность воздуха - влажноcть воздуха, измеренная на высоте 2 м над землей.
Te - Эффективная температура - температура, которую ощущает одетый по сезону человек в тени. Характеристика душности погоды. При расчете учитывается влияние влажности воздуха и скорости ветра на теплоощущения человека.
Tes - Эффективная температура на солнце - температура, которую ощущает человек, с поправкой на солнечный нагрев. Характеристика знойности погоды. Зависит от высоты солнца над горизонтом, облачности и скорости ветра. Ночью, в пасмурную погоду, а также при ветре 12 м/с и более поправка равна нулю.
P - Атмосферное давление - приведенное к уровню моря атмосферное давление.
Po - Атмосферное давление - измеренное на уровне метеостанции атмосферное давление.
Tmin - Минимальная температура - минимум температуры воздуха на высоте 2 м над землей.
Tmax - Максимальная температура - максимум температуры воздуха на высоте 2 м над землей.
R - Количество осадков - Количество выпавших осадков за период времени, мм. При наведении курсора мыши на число - период времени, за который выпало указанное количество осадков.
R24 - Количество осадков - Количество выпавших осадков за 24 часа, мм.
S - Снежный покров - Высота снежного покрова, см. При наведении курсора мыши на число - состояние снежного покрова и степень покрытия местности в баллах.